| time (UTC) | temp F | wind direction | speed knots | gust knots | rain 1hr in | rain 24hr in | rain mn in | humidity % | barometer mb |
| 20260505041559 | 73 | 51 | 2.6 | 6.1 | 0.00 | 0.00 | 0.00 | 61 | 1004.0 |
| 20260505040108 | 73 | 32 | 1.7 | 3.5 | 0.00 | 0.00 | 0.00 | 62 | 1004.0 |
| 20260505034604 | 74 | 103 | 0.0 | 4.3 | 0.00 | 0.00 | 0.00 | 61 | 1003.3 |
| 20260505033100 | 74 | 0 | 0.9 | 3.5 | 0.00 | 0.00 | 0.00 | 59 | 1003.3 |
| 20260505031601 | 75 | 134 | 0.0 | 7.0 | 0.00 | 0.00 | 0.00 | 58 | 1003.4 |
| 20260505024601 | 77 | 131 | 0.9 | 6.1 | 0.00 | 0.00 | 0.00 | 51 | 1003.0 |
| 20260505023056 | 75 | 133 | 1.7 | 4.3 | 0.00 | 0.00 | 0.00 | 54 | 1002.5 |
| 20260505021602 | 76 | 214 | 0.9 | 7.0 | 0.00 | 0.00 | 0.00 | 52 | 1002.7 |
| 20260505020059 | 77 | 120 | 1.7 | 4.3 | 0.00 | 0.00 | 0.00 | 51 | 1002.6 |
| 20260505014606 | 77 | 137 | 0.0 | 4.3 | 0.00 | 0.00 | 0.00 | 50 | 1002.8 |
| 20260505013059 | 78 | 0 | 0.9 | 4.3 | 0.00 | 0.00 | 0.00 | 49 | 1002.6 |
| 20260505011556 | 79 | 0 | 0.0 | 4.3 | 0.00 | 0.00 | 0.00 | 46 | 1002.2 |
| 20260505010100 | 79 | 0 | 0.0 | 4.3 | 0.00 | 0.00 | 0.00 | 44 | 1001.8 |
| 20260505004559 | 80 | 128 | 0.0 | 2.6 | 0.00 | 0.00 | 0.00 | 43 | 1001.6 |
| 20260505003057 | 81 | 155 | 0.9 | 5.2 | 0.00 | 0.00 | 0.00 | 42 | 1001.7 |
| 20260505001556 | 82 | 205 | 0.9 | 5.2 | 0.00 | 0.00 | 0.00 | 41 | 1001.6 |
| 20260505000059 | 83 | 128 | 0.9 | 7.0 | 0.00 | 0.00 | 0.00 | 39 | 1001.6 |
| 20260504234558 | 84 | 178 | 0.9 | 5.2 | 0.00 | 0.00 | 0.00 | 38 | 1001.7 |
| 20260504233058 | 84 | 180 | 1.7 | 6.1 | 0.00 | 0.00 | 0.00 | 36 | 1002.0 |
| 20260504231559 | 85 | 113 | 2.6 | 8.7 | 0.00 | 0.00 | 0.00 | 36 | 1001.8 |
| 20260504230058 | 86 | 126 | 0.9 | 7.0 | 0.00 | 0.00 | 0.00 | 34 | 1001.7 |
| 20260504224559 | 87 | 84 | 0.0 | 4.3 | 0.00 | 0.00 | 0.00 | 33 | 1001.7 |
| 20260504223102 | 87 | 126 | 0.0 | 3.5 | 0.00 | 0.00 | 0.00 | 32 | 1001.8 |
| 20260504221558 | 87 | 79 | 0.9 | 5.2 | 0.00 | 0.00 | 0.00 | 31 | 1001.9 |
| 20260504214605 | 88 | 105 | 0.9 | 5.2 | 0.00 | 0.00 | 0.00 | 27 | 1002.2 |
| 20260504213058 | 87 | 96 | 1.7 | 3.5 | 0.00 | 0.00 | 0.00 | 27 | 1002.4 |
| 20260504211556 | 88 | 160 | 0.9 | 4.3 | 0.00 | 0.00 | 0.00 | 27 | 1002.5 |
| 20260504210106 | 86 | 75 | 1.7 | 7.0 | 0.00 | 0.00 | 0.00 | 29 | 1002.8 |
| 20260504204623 | 86 | 97 | 1.7 | 6.1 | 0.00 | 0.00 | 0.00 | 28 | 1002.9 |
| 20260504203134 | 87 | 83 | 0.9 | 5.2 | 0.00 | 0.00 | 0.00 | 30 | 1003.2 |
| 20260504201557 | 85 | 102 | 1.7 | 5.2 | 0.00 | 0.00 | 0.00 | 34 | 1003.4 |
| 20260504200058 | 85 | 0 | 0.9 | 4.3 | 0.00 | 0.00 | 0.00 | 33 | 1003.6 |
| 20260504194559 | 84 | 101 | 1.7 | 4.3 | 0.00 | 0.00 | 0.00 | 35 | 1003.7 |
| 20260504193101 | 84 | 93 | 1.7 | 4.3 | 0.00 | 0.00 | 0.00 | 35 | 1003.9 |
| 20260504191604 | 85 | 146 | 0.9 | 4.3 | 0.00 | 0.00 | 0.00 | 30 | 1004.1 |
| 20260504190118 | 84 | 0 | 0.9 | 3.5 | 0.00 | 0.00 | 0.00 | 33 | 1004.3 |
| 20260504184602 | 85 | 100 | 1.7 | 5.2 | 0.00 | 0.00 | 0.00 | 29 | 1004.3 |
| 20260504183103 | 86 | 158 | 0.9 | 7.0 | 0.00 | 0.00 | 0.00 | 32 | 1004.5 |
| 20260504181606 | 86 | 74 | 0.9 | 3.5 | 0.00 | 0.00 | 0.00 | 31 | 1004.8 |
| 20260504180126 | 84 | 28 | 1.7 | 4.3 | 0.00 | 0.00 | 0.00 | 29 | 1005.1 |
| 20260504174558 | 84 | 300 | 0.0 | 4.3 | 0.00 | 0.00 | 0.00 | 29 | 1005.1 |
| 20260504173108 | 85 | 155 | 0.9 | 1.7 | 0.00 | 0.00 | 0.00 | 31 | 1005.1 |
| 20260504171612 | 82 | 0 | 0.9 | 2.6 | 0.00 | 0.00 | 0.00 | 33 | 1005.2 |
| 20260504160106 | 77 | 220 | 0.0 | 3.5 | 0.00 | 0.00 | 0.00 | 43 | 1005.1 |
| 20260504110109 | 60 | 214 | 0.0 | 3.5 | 0.00 | 0.00 | 0.00 | 62 | 1004.9 |
| 20260504100105 | 62 | 128 | 0.9 | 5.2 | 0.00 | 0.00 | 0.00 | 57 | 1005.6 |
| 20260504081559 | 66 | 222 | 1.7 | 7.8 | 0.00 | 0.00 | 0.00 | 48 | 1006.0 |
| 20260504060104 | 69 | 235 | 1.7 | 8.7 | 0.00 | 0.00 | 0.00 | 41 | 1007.3 |
| 20260504044559 | 69 | 173 | 0.9 | 4.3 | 0.00 | 0.00 | 0.00 | 39 | 1007.7 |
| 20260504043101 | 69 | 181 | 0.9 | 4.3 | 0.00 | 0.00 | 0.00 | 39 | 1007.8 |